Regional Weather Roundup
Issued by NWS Raleigh/Durham, NC

Home | Current Version | Previous Version | Text Only | Print | Product List | Glossary On
Versions: 1 2 3 4 5 6 7 8 9 10 11 12 13 14 15 16 17 18 19 20 21 22 23 24 25 26 27 28 29 30 31 32 33 34 35 36 37 38 39 40 41 42 43 44 45 46 47 48 49 50
193
ASUS42 KRAH 211710
RWRRAH
NORTH CAROLINA WEATHER ROUNDUP
NATIONAL WEATHER SERVICE RALEIGH NC
1200 PM EST TUE FEB 21 2017

NOTE: "FAIR" INDICATES FEW OR NO CLOUDS BELOW 12,000 FEET WITH NO
SIGNIFICANT WEATHER AND/OR OBSTRUCTIONS TO VISIBILITY.

NCZ001-053-055-056-065-067-211800-
WESTERN NORTH CAROLINA

CITY           SKY/WX    TMP DP  RH WIND       PRES   REMARKS
ASHEVILLE      CLOUDY    57  40  52 SE9       30.19S
JEFFERSON      CLOUDY    48  41  77 SE3       30.20F
HICKORY        MOSUNNY   61  44  53 VRB5      30.20F
RUTHERFORDTON  NOT AVBL
MOUNT AIRY     MOSUNNY   58  41  52 SE3       30.24F
$$

NCZ021-022-025-041-071-084-088-211800-
CENTRAL NORTH CAROLINA

CITY           SKY/WX    TMP DP  RH WIND       PRES   REMARKS
CHARLOTTE      CLOUDY    64  42  44 S6        30.19F
GREENSBORO     CLOUDY    58  37  45 SE8       30.22F
WINSTON-SALEM  MOSUNNY   60  35  39 SE9       30.23F
RALEIGH-DURHAM CLOUDY    60  33  36 E6        30.25F
FORT BRAGG     PTSUNNY   61  40  44 NE6       30.22F
FAYETTEVILLE   PTSUNNY   64  42  44 E9        30.23F
$$

NCZ011-015-027-028-043-044-047-080-103-211800-
NORTHEASTERN NORTH CAROLINA

CITY           SKY/WX    TMP DP  RH WIND       PRES   REMARKS
ROANOKE RAPIDS FAIR      55  37  50 E6        30.28F
ROCKY MT-WILSO MOSUNNY   58  41  53 VRB6      30.26F
GREENVILLE     MOSUNNY   59  45  58 E3        30.26F
WASHINGTON     CLOUDY    60  46  60 E6        30.26F
ELIZABETH CITY NOT AVBL
MANTEO         SUNNY     55  43  62 E13       30.27F
CAPE HATTERAS  SUNNY     64  51  62 VRB6      30.23F
$$

NCZ078-087-090-091-093-098-101-211800-
SOUTHEASTERN NORTH CAROLINA

CITY           SKY/WX    TMP DP  RH WIND       PRES   REMARKS
LUMBERTON      LGT RAIN  64  44  48 E5        30.21F
GOLDSBORO      PTSUNNY   60  40  47 E7        30.23F
KINSTON        PTSUNNY   59  45  58 NE5       30.25F
NEW BERN       CLOUDY    61  48  62 E6        30.25F
CHERRY POINT   MOSUNNY   59  47  64 NE9       30.25F
BEAUFORT       NOT AVBL
WILMINGTON     CLOUDY    64  48  56 E8        30.22F
$$





USA.gov is the U.S. government's official web portal to all federal, state and local government web resources and services.